Regional Weather Roundup
Issued by NWS

Home | Current Version | Previous Version | Graphics & Text | Print | Product List | Glossary On
Versions: 1 2 3 4 5 6 7 8 9 10 11 12 13 14 15 16 17 18 19 20 21 22 23 24 25 26 27 28 29 30 31 32 33 34 35 36 37 38 39 40 41 42 43 44 45 46 47 48 49 50
000
ASUS44 KMEG 270500
RWRTN
TENNESSEE HOURLY STATE WEATHER ROUNDUP
NATIONAL WEATHER SERVICE MEMPHIS TN
1200 AM CDT MON MAR 27 2017

TNZ002-004-019-021-049-052-054-088>092-270600-
WEST TENNESSEE

CITY           SKY/WX    TMP DP  RH WIND       PRES   REMARKS
MEMPHIS INTL   PTCLDY    64  53  67 SE5       29.93R
NWS MEMPHIS      N/A     59 N/A N/A MISG        N/A
JACKSON        PTCLDY    56  53  90 CALM      29.96S
DYERSBURG      PTCLDY    59  54  83 SE5       29.95S
PARIS          CLEAR     52  48  87 E5        29.96S
$$

TNZ008-025-027-028-033-062-065-066-270600-
NORTH MIDDLE TENNESSEE

CITY           SKY/WX    TMP DP  RH WIND       PRES   REMARKS
NASHVILLE      CLOUDY    60  54  80 S6        29.99F
CLARKSVILLE    MOCLDY    55  50  83 CALM      29.97F
SMYRNA         CLOUDY    57  54  89 SE3       30.00F
CROSSVILLE     CLEAR     55  49  80 CALM      30.07S
$$

TNZ061-075-076-078-094-096-097-270600-
SOUTH MIDDLE TENNESSEE

CITY           SKY/WX    TMP DP  RH WIND       PRES   REMARKS
TULLAHOMA      CLEAR     52  50  93 CALM      30.03F
WINCHESTER     CLEAR     55  52  88 E3        30.03F
COLUMBIA       CLEAR    N/A N/A N/A CALM      29.97F
SHELBYVILLE    CLEAR     63  55  77 SE6       30.02F
$$

TNZ017-018-042-046-047-270600-
NORTHEAST TENNESSEE

CITY           SKY/WX    TMP DP  RH WIND       PRES   REMARKS
TRI CITIES     MOCLDY    59  52  77 CALM      30.06F
$$

TNZ012-013-036-069-073-074-270600-
CENTRAL EAST TENNESSEE

CITY           SKY/WX    TMP DP  RH WIND       PRES   REMARKS
KNOXVILLE      CLOUDY    60  52  74 S5        30.04S
OAK RIDGE      CLOUDY    58  52  80 CALM      30.05S
GATLINBURG     MOCLDY    57  52  82 CALM      30.04F
$$

TNZ083-085-099-270600-
SOUTHEAST TENNESSEE

CITY           SKY/WX    TMP DP  RH WIND       PRES   REMARKS
CHATTANOOGA    CLEAR     59  54  83 CALM      30.04F
$$

SKY/WX REPORTED AS FAIR MEANS FEW OR NO CLOUDS BELOW
12 THOUSAND FEET.




USA.gov is the U.S. government's official web portal to all federal, state and local government web resources and services.